Location: Shannon
(40.5500°S, 175.4167°E)
Time: 12:47:29
(UTC+00:00)

Cosmos 2297 Rocket - Visible Passes

Search period start: 14 February 2026 00:00
Search period end: 24 February 2026 00:00
Orbit: 837 x 843 km, 71.0° (Epoch: 13 February)

Date Brightness Start Highest point End Pass type
(mag) Time Alt. Az. Time Alt. Az. Time Alt. Az.
14 Feb 5.1 16:49:43 10° ENE 16:52:04 13° E 16:54:25 10° ESE visible
15 Feb 5.1 16:34:43 10° ENE 16:36:39 12° E 16:38:34 10° ESE visible
16 Feb 5.2 16:19:53 10° ENE 16:21:13 11° E 16:22:33 10° E visible
19 Feb 2.5 17:12:15 10° NNW 17:17:53 74° ENE 17:23:35 10° SSE visible
20 Feb 2.5 16:56:48 10° NNW 17:02:24 69° ENE 17:08:05 10° SSE visible
21 Feb 2.6 16:41:22 10° N 16:46:56 65° ENE 16:52:35 10° SSE visible
22 Feb 2.7 16:25:55 10° N 16:31:29 61° ENE 16:37:06 10° SSE visible
23 Feb 2.7 16:11:16 14° N 16:16:01 57° ENE 16:21:35 10° SSE visible
